FENGYUN 1C DEB, 31761

Orbit data source: Space-Track

FENGYUN 1C DEB, 31761 is space debris in SSO originally from a launch on Mon, 10 May 1999 UTC launched from the Taiyaun Space Center, China (TSC). Fengyun 1C debris stems from the Chinese weather satellite Fengyun-1C, which was intentionally destroyed by a Chinese anti-satellite missile in 2007. This event dramatically increased the amount of space debris, with thousands of trackable fragments posing hazards to satellites and human spaceflight. The Fengyun 1C debris cloud has become a focal point in discussions about space sustainability and the need for international regulations to prevent the creation of new debris.

Loading next visibility...
Identifier
31761, 1999-025CFL
Orbit
SSO
Country
Flag of CNCN / PRC
Related business
Manufacturer
Unknown
Mission
Spacecraft
Bus & Motor
Unknown
Mass
Unknown
Launch date (UTC)
1999-05-10 (27 years ago)
Launch vehicle
Unknown
Launch site
Taiyaun Space Center, China (TSC)
Object type
Payload
Rocket body
Debris
Shape & HBR
Unknown shape, 0.1 m
Radar Cross Section
Small (<0.1 m²)

Expand to show TLE details & history
Last TLE update: 20 hours ago

TLE from 20 hours ago
0 FENGYUN 1C DEB
1 31761U 99025CFL 25347.90201482  .00009753  00000-0  22926-2 0  9997
2 31761  98.6342 211.7282 0472090 260.1505  94.6072 14.03476064581272
Epoch: 2025-12-13T21:38Z
TLE epoch observation values (Epoch: 2025-12-13T21:38:54.080Z)
Latitude
-0.00002°
Longitude
164.18024°
Altitude
928.182 km
Speed
7.366 km/s
True Right ascension
14h 06m 54s
True Declination
0° 00' 00"
Sunlit
Object was in daylight at epoch
Visualization orbit readout
Latitude
Unknown
Longitude
Unknown
Altitude
Unknown
Speed
Unknown
Apparent Right ascension
Unknown
Apparent Declination
Unknown
Sunlit
N/A
Visualization observer readout
Local Sidereal Time
16:21:44
Azimuth
Unknown
Elevation
Unknown
Doppler factor
Unknown
Orbital elements
Apogee altitude
1,221.551 km
Perigee altitude
536.351 km
Semi-major axis
7,257.088 km
Eccentricity
0.04721
Inclination
98.6342°
RAAN
211.7282°
Arg. of periapsis
260.1505°
True anomaly
99.96621°
Mean anomaly
94.6072°
Eccentric anomaly
97.29021°
Mean motion
3.51075 °/min
Orbital period
102.54 mins
BSTAR
0.0022926
Loading maneuver chart data...
Computing Atmospheric mass density...

Documentation

Showing up to 5 results
|